Bar Harbor, ME

1:32 AM EST on December 07, 2019 (GMT -0500)
Hancock County-Bar Harbor

Weather History for KBHB - November, 2019

Change the Weather History Date:

Sunday, November 17, 2019

  Actual Average Record
Temperature  
Mean Temperature 25 °F -  
Max Temperature 35 °F 42 °F 64 °F (2006)
Min Temperature 15 °F 27 °F 15 °F (1967)
Degree Days  
Heating Degree Days 40    
Moisture  
Dew Point 13 °F    
Average Humidity 63    
Maximum Humidity 84    
Minimum Humidity 35    
Precipitation  
Precipitation 0.00 in - - ()
Sea Level Pressure  
Sea Level Pressure 30.45 in    
Wind  
Wind Speed 3 mph (North)    
Max Wind Speed 12 mph    
Max Gust Speed -    
Visibility 10 miles    
Events      
Averages and records for this station are not official NWS values.
T = Trace of Precipitation, MM = Missing Value Source: NWS Daily Summary

Daily Weather History Graph

Daily Weather History Graph

Search for Another Location

Airport or City:

Astronomy

Nov. 17, 2019 Rise Set
Actual Time 6:31 AM EST 4:04 PM EST
Civil Twilight 6:00 AM EST 4:35 PM EST
Nautical Twilight 5:24 AM EST 5:11 PM EST
Astronomical Twilight 4:50 AM EST 5:45 PM EST
Moon 8:34 PM EST (11/17) 11:18 AM EST (11/17)
Length of Visible Light 10h 35m
Length of Day
9h 32m
Waning Gibbous, 73% of the Moon is Illuminated
Nov 17
Waning Gibbous
Nov 19
Last Quarter
Nov 26
New
Dec 4
First Quarter
Dec 12
Full

Hourly Weather History & Observations

Time (EST) Temp. Windchill Dew Point Humidity Pressure Visibility Wind Dir Wind Speed Gust Speed Precip Events Conditions
12:56 AM 18.0 °F 12.7 °F 10.9 °F 74% 30.52 in 10.0 mi Variable 3.5 mph - N/A   Clear
1:56 AM 15.1 °F 9.4 °F 10.9 °F 84% 30.54 in 10.0 mi South 3.5 mph - N/A   Clear
2:56 AM 16.0 °F - 10.9 °F 81% 30.53 in 10.0 mi Calm Calm - N/A   Clear
3:56 AM 15.1 °F 9.4 °F 10.0 °F 80% 30.53 in 10.0 mi NW 3.5 mph - N/A   Clear
4:56 AM 15.1 °F - 10.0 °F 80% 30.53 in 10.0 mi Calm Calm - N/A   Clear
5:56 AM 15.1 °F - 10.0 °F 80% 30.54 in 10.0 mi Calm Calm - N/A   Clear
6:56 AM 16.0 °F 7.4 °F 10.0 °F 77% 30.55 in 10.0 mi North 5.8 mph - N/A   Clear
7:56 AM 18.0 °F 5.4 °F 10.9 °F 74% 30.54 in 10.0 mi NNE 11.5 mph - N/A   Clear
8:56 AM 21.9 °F 12.5 °F 12.0 °F 66% 30.54 in 10.0 mi NNE 8.1 mph - N/A   Clear
9:56 AM 26.1 °F 20.5 °F 14.0 °F 60% 30.53 in 10.0 mi NE 4.6 mph - N/A   Clear
10:56 AM 28.9 °F - 14.0 °F 54% 30.51 in 10.0 mi Calm Calm - N/A   Clear
11:56 AM 32.0 °F 27.5 °F 12.0 °F 44% 30.47 in 10.0 mi North 4.6 mph - N/A   Clear
12:56 PM 33.1 °F - 12.9 °F 43% 30.44 in 10.0 mi Calm Calm - N/A   Clear
1:56 PM 35.1 °F 31.0 °F 10.0 °F 35% 30.43 in 10.0 mi NNE 4.6 mph - N/A   Clear
2:56 PM 35.1 °F 32.2 °F 12.0 °F 39% 30.42 in 10.0 mi SE 3.5 mph - N/A   Clear
3:56 PM 30.9 °F - 15.1 °F 52% 30.40 in 10.0 mi Calm Calm - N/A   Clear
4:56 PM 30.0 °F - 14.0 °F 51% 30.39 in 10.0 mi Calm Calm - N/A   Clear
5:56 PM 28.0 °F 24.2 °F 15.1 °F 58% 30.38 in 10.0 mi North 3.5 mph - N/A   Clear
6:56 PM 28.0 °F 22.8 °F 16.0 °F 61% 30.37 in 10.0 mi North 4.6 mph - N/A   Clear
7:56 PM 27.0 °F 19.5 °F 15.1 °F 61% 30.35 in 10.0 mi North 6.9 mph - N/A   Clear
8:56 PM 27.0 °F 20.5 °F 14.0 °F 58% 30.33 in 10.0 mi NNW 5.8 mph - N/A   Clear
9:56 PM 27.0 °F - 14.0 °F 58% 30.31 in 10.0 mi Calm Calm - N/A   Clear
10:56 PM 26.1 °F 21.9 °F 16.0 °F 66% 30.29 in 10.0 mi NNW 3.5 mph - N/A   Clear
11:56 PM 25.0 °F 20.7 °F 17.1 °F 72% 30.26 in 10.0 mi North 3.5 mph - N/A   Clear